Theta_e
321 318 313 310 308 307 307 306 305 302 296 295 293 291 291 290 291 290 290 289 288 287 287 286 285 284 284 283 283 282 281 280 280 280 280 281 280 280 279 278 277 277 277
311 308 308 307 307 307 305 302 301 297 296 292 291 290 290 290 290 289 288 288 287 286 286 285 284 284 283 282 281 280 280 279 279 280 280 280 280 279 278 277 276 276 276
310 307 306 305 305 304 302 302 299 296 291 290 290 290 290 289 288 288 287 287 286 286 285 284 284 283 282 281 281 280 279 279 279 280 280 280 279 278 277 275 275 274 274
307 307 305 304 303 302 300 297 293 290 290 290 289 289 288 288 287 288 287 286 286 285 284 284 283 282 281 280 280 279 278 278 279 279 279 278 277 276 275 274 273 272 272
306 305 304 302 300 299 294 292 290 290 290 289 289 289 288 288 288 287 286 285 284 284 284 283 283 282 281 280 279 278 277 278 278 278 277 276 275 274 273 272 271 271 271
305 304 302 301 299 293 291 290 289 289 289 289 289 288 288 288 287 286 285 285 285 284 283 283 283 282 281 279 277 277 277 278 277 276 275 274 274 272 271 271 270 269 269
302 302 301 297 292 290 290 290 289 289 289 289 289 288 288 287 286 286 285 285 284 284 284 282 281 280 279 277 276 277 278 277 276 274 273 273 272 271 270 270 269 268 268
303 300 294 290 290 290 290 289 289 289 289 289 288 288 287 287 287 286 285 285 285 284 282 281 280 279 277 277 277 277 276 275 274 273 273 272 272 271 270 269 268 268 268
301 291 290 290 290 290 289 289 289 289 289 288 288 288 287 286 286 285 285 285 282 281 281 280 279 279 278 276 277 276 275 274 273 273 272 272 271 271 270 269 268 267 266
291 290 290 290 289 289 289 289 288 290 291 288 287 286 286 285 285 285 283 282 281 280 279 280 280 279 277 276 275 275 274 273 272 272 272 271 271 270 269 267 266 265 265
290 290 289 289 288 289 289 291 291 292 288 288 286 286 285 285 284 283 282 281 281 280 281 280 278 276 276 275 275 274 273 271 272 271 271 270 270 268 267 266 265 265 265
289 289 288 288 288 292 294 295 294 290 288 286 286 285 284 283 283 282 282 283 281 281 279 278 277 276 275 274 274 273 272 272 271 271 270 269 268 267 267 266 265 265 265
289 288 288 287 290 294 294 294 293 288 286 285 285 284 283 283 283 283 283 283 281 280 278 277 276 275 274 273 272 272 271 271 270 269 268 268 267 267 267 266 265 265 265
289 288 288 287 289 291 291 293 288 285 285 285 284 284 283 284 284 283 281 281 279 278 277 276 274 273 273 272 271 271 270 269 268 268 268 267 267 267 266 265 265 265 265
292 292 291 290 290 292 293 288 285 285 284 284 284 284 284 283 282 281 280 279 278 277 275 274 273 272 271 271 270 269 268 268 267 267 267 267 267 266 266 265 265 265 264
295 294 293 292 292 290 286 285 285 284 284 285 285 285 283 282 281 280 278 277 275 274 273 272 271 271 270 269 269 268 268 267 267 267 266 266 266 265 265 265 264 264 264
295 294 293 289 287 285 285 284 284 285 285 286 284 282 282 281 279 278 276 275 273 272 272 271 270 269 269 268 268 268 267 267 266 266 266 266 265 265 264 264 264 264 264
293 289 289 288 285 285 285 285 284 285 284 283 282 282 281 279 277 275 274 273 272 271 270 270 269 269 268 268 268 267 267 266 266 266 266 265 265 264 264 264 264 263 263
289 288 286 285 285 285 285 285 285 283 282 282 281 279 277 275 274 273 272 271 271 270 270 269 269 268 268 268 267 267 266 266 266 265 265 265 265 264 264 264 264 264 263
287 286 285 285 285 285 285 284 283 283 282 280 278 276 275 274 273 272 271 271 271 270 270 269 269 268 268 267 267 267 266 266 266 265 265 265 264 264 264 264 264 263 263
286 285 285 285 285 285 285 283 283 281 278 276 275 275 274 274 273 272 272 271 270 269 269 268 268 268 267 267 266 266 266 266 266 265 265 265 264 264 263 264 263 263 263
285 286 286 286 285 284 283 281 278 277 276 275 275 274 274 273 273 273 272 271 270 269 268 268 268 267 267 266 266 266 265 266 265 265 265 265 264 264 264 263 263 263 263
286 286 285 285 284 281 279 277 277 276 276 275 275 275 274 274 273 272 271 270 270 269 269 268 268 267 267 266 266 266 266 266 265 265 264 264 264 264 264 264 263 263 263
286 285 284 282 279 278 277 276 276 276 276 275 275 274 274 273 273 272 271 271 270 269 269 269 268 268 267 267 266 266 266 266 265 265 264 264 264 264 264 264 264 263 263
284 282 280 278 277 277 277 277 276 276 275 275 275 274 273 273 272 272 271 270 270 270 270 269 269 268 268 267 267 267 266 266 265 264 264 264 264 264 264 264 264 263 264
280 278 278 277 277 277 277 276 276 275 275 275 274 274 273 273 272 271 271 270 270 269 269 269 268 268 268 267 267 267 267 266 266 266 265 265 265 265 264 264 264 264 264
Wind_Speed
33 34 31 28 33 32 32 28 24 21 18 16 14 13 11 9 7 5 4 3 3 4 6 7 9 11 12 13 14 15 14 14 17 23 22 22 23 24 25 26 27 31 27
28 25 29 31 34 33 30 26 24 21 18 17 15 12 10 7 5 4 3 3 4 5 6 9 11 12 13 13 14 15 16 17 19 22 23 22 22 23 25 26 31 23 29
27 31 37 36 35 33 27 26 21 18 19 17 14 10 8 7 5 4 3 2 4 6 8 10 11 13 14 14 16 18 18 18 18 19 24 23 24 25 27 29 24 33 38
38 38 38 37 30 28 26 22 20 18 16 14 12 9 7 5 3 2 2 3 5 7 9 10 12 14 15 17 18 19 18 18 16 20 22 24 25 26 27 29 34 38 35
42 41 38 32 27 25 23 21 20 18 15 12 10 7 5 3 1 1 3 5 6 8 10 12 14 16 18 19 19 19 18 17 18 21 23 26 25 25 28 30 35 36 39
40 37 30 29 27 23 23 22 19 16 13 10 8 5 3 1 1 3 4 6 8 9 11 14 17 19 21 20 17 17 16 18 20 22 24 24 24 27 32 33 35 37 41
30 29 30 26 26 25 22 19 17 14 11 8 5 3 2 1 2 4 6 8 9 11 14 16 17 19 19 20 19 14 18 23 20 20 21 23 28 33 35 35 37 37 41
33 29 28 27 25 22 19 17 15 12 9 6 3 3 3 4 6 7 7 9 12 14 15 16 18 18 18 20 18 19 20 20 20 21 25 29 32 33 31 30 33 37 40
25 27 26 24 21 19 17 15 12 10 6 3 2 3 4 6 8 9 11 12 13 15 17 17 17 19 18 15 16 19 23 25 25 29 31 31 31 30 29 31 32 33 38
27 26 23 21 19 18 15 13 11 7 4 3 3 4 6 7 10 12 13 13 14 16 17 19 22 21 16 12 19 24 26 25 30 33 33 31 31 30 28 26 26 28 30
23 22 22 20 18 15 14 11 8 4 2 4 4 5 8 9 11 13 13 14 15 17 19 19 18 19 18 19 22 25 27 26 30 31 32 32 31 29 27 26 24 24 27
22 21 20 19 17 15 11 6 3 3 4 4 6 7 8 9 11 13 15 17 17 19 18 18 20 21 22 23 24 26 27 28 29 29 30 30 29 29 28 27 25 25 26
19 19 18 18 16 12 6 0 2 1 4 5 6 8 9 10 11 16 17 18 19 18 17 19 20 21 22 25 24 24 25 27 27 28 28 28 28 29 28 28 29 29 32
18 16 15 14 12 11 7 3 1 3 5 6 7 8 10 12 14 16 18 19 18 19 20 20 21 23 23 23 24 24 25 26 26 27 28 28 29 29 28 27 31 33 36
19 18 18 17 14 8 4 2 3 5 6 6 8 9 12 13 15 17 19 19 20 19 20 20 21 21 22 23 24 25 25 25 26 26 27 28 28 28 28 27 30 33 35
10 11 11 10 7 4 4 6 5 6 7 8 10 12 13 14 17 18 18 19 20 22 20 21 20 21 22 24 25 25 24 25 25 26 26 27 27 28 29 29 30 33 37
13 12 10 8 7 7 6 5 4 5 8 11 12 13 15 18 18 18 19 17 18 19 21 22 23 24 24 25 25 26 26 25 25 25 26 26 27 28 30 31 32 34 39
13 11 10 9 8 7 5 3 5 7 9 10 13 15 16 17 16 16 18 19 20 21 22 24 25 25 26 26 26 26 26 26 26 26 26 26 27 28 31 32 33 36 39
11 10 8 7 6 3 2 3 5 7 9 11 13 14 15 15 18 19 20 21 22 23 25 26 26 26 26 26 26 27 27 27 27 27 28 28 28 29 31 33 35 36 38
9 8 7 5 3 2 3 4 5 7 9 10 11 13 15 17 18 20 23 25 27 27 27 27 27 26 26 27 27 28 28 28 29 29 31 31 31 30 32 34 36 38 38
8 7 5 3 2 2 3 4 5 7 8 10 12 15 18 21 23 25 26 27 28 27 27 27 27 27 27 28 29 30 31 31 31 31 32 33 33 34 33 34 36 37 38
5 4 3 2 1 1 2 4 5 6 9 11 13 16 19 22 24 25 26 26 27 28 29 30 30 30 30 31 32 33 33 34 33 34 35 36 36 36 36 37 38 38 37
3 3 3 2 1 1 2 4 6 8 10 13 15 18 21 23 25 27 28 29 29 30 31 32 33 34 32 32 33 34 36 35 34 35 37 37 38 38 38 38 38 37 35
4 4 2 1 0 2 4 5 7 10 12 15 18 21 24 26 28 30 31 33 33 34 35 36 37 37 36 35 35 36 37 37 36 37 36 38 39 38 39 38 37 36 34
3 2 2 1 2 3 5 6 8 11 14 17 20 23 26 29 31 33 34 36 37 39 39 40 41 41 40 38 37 36 36 36 37 38 38 39 39 38 38 37 36 34 32
4 3 2 2 2 3 5 7 10 13 16 19 23 26 30 33 35 36 38 40 41 43 44 44 45 44 44 44 41 39 37 37 37 36 36 37 39 38 38 36 33 32 32
Wind_Direction
207 208 206 187 170 162 155 151 139 130 134 143 156 158 152 145 137 117 98 76 52 30 13 5 2 356 351 346 340 333 328 319 306 309 310 314 314 315 313 314 313 317 321
193 179 165 155 153 149 142 139 134 145 151 156 158 158 149 139 130 122 97 61 32 12 0 358 354 345 338 335 330 326 321 318 312 312 316 313 312 309 309 308 317 312 308
162 160 152 153 146 143 144 136 144 162 157 155 159 152 143 140 140 116 75 28 3 357 354 347 338 331 328 326 323 323 320 311 312 309 306 313 310 311 309 311 309 311 316
153 149 148 144 138 139 138 145 157 155 154 156 152 149 141 144 130 70 6 353 355 346 338 333 328 322 322 323 321 317 310 310 314 310 309 309 309 315 311 312 313 319 319
146 147 141 144 144 134 148 155 154 155 156 154 148 150 154 146 127 333 346 351 339 330 325 321 319 321 320 316 312 309 309 317 316 305 309 312 320 320 317 316 316 318 319
142 139 144 145 139 154 157 157 155 153 151 151 154 160 159 186 317 333 328 327 321 316 315 321 322 320 316 309 310 317 328 307 306 316 313 315 313 312 315 318 315 319 322
146 148 143 144 155 157 157 154 151 149 151 155 164 185 229 279 310 317 315 310 305 316 321 317 313 311 313 314 325 327 301 308 311 313 311 313 313 319 318 317 319 317 317
145 146 150 152 157 155 154 151 151 148 153 163 181 231 282 310 316 315 304 304 316 316 310 310 309 310 319 323 324 313 314 315 315 306 314 317 317 318 316 314 316 316 317
148 149 150 155 155 152 152 150 147 151 155 184 232 278 301 304 307 305 317 318 313 310 308 310 316 318 318 331 313 306 311 316 309 315 318 318 318 318 318 317 320 320 321
149 151 152 152 154 150 146 145 151 154 176 232 273 295 307 301 305 315 321 311 303 308 320 319 320 318 322 308 293 304 312 317 314 319 321 322 322 322 322 321 322 317 318
150 153 153 152 151 146 145 146 156 161 199 275 292 298 303 307 313 310 306 311 321 317 317 315 311 302 306 304 310 316 313 311 317 319 321 321 321 323 324 324 323 317 315
154 155 154 154 151 142 138 138 143 141 256 284 291 299 308 311 306 306 319 325 319 316 314 308 304 308 310 312 312 311 311 315 317 319 320 322 322 324 326 324 321 318 320
159 157 154 152 151 138 144 274 181 243 270 286 302 304 304 308 316 320 322 322 317 312 311 311 310 311 311 311 313 313 315 317 318 320 321 322 324 325 326 325 325 324 320
160 152 155 158 167 190 217 215 178 245 272 278 292 301 313 321 323 321 320 323 321 318 317 314 313 312 314 316 318 318 318 319 321 323 324 325 324 324 325 325 323 324 320
173 177 183 186 194 208 193 195 229 255 269 291 305 318 321 322 320 321 323 321 317 315 311 310 313 316 318 316 316 318 322 325 325 324 322 322 321 320 320 321 322 321 319
159 162 172 171 182 169 199 226 239 262 291 316 325 322 321 321 326 325 320 314 310 312 316 318 320 317 315 317 320 323 325 324 323 321 319 318 317 317 317 318 318 321 321
149 151 157 176 188 198 207 229 264 305 325 325 319 324 333 331 323 315 310 315 319 320 319 318 318 318 318 321 323 323 322 322 321 319 317 318 316 315 315 316 318 319 321
159 166 188 189 189 198 208 260 309 317 314 318 329 332 325 319 315 317 323 325 323 321 320 320 319 320 322 322 322 319 320 320 319 318 317 317 316 315 315 317 318 319 321
173 182 185 187 193 202 267 300 303 310 324 328 322 319 320 323 329 329 327 326 326 325 323 322 322 321 319 317 317 317 317 319 319 318 317 316 316 316 317 318 318 320 322
169 177 183 184 197 222 280 305 318 322 320 316 318 324 331 331 333 334 334 333 330 328 325 322 320 319 317 316 315 315 315 317 319 319 317 316 316 315 316 316 317 319 321
174 174 174 192 217 280 309 318 322 321 321 328 335 336 339 342 340 338 335 331 326 325 324 322 321 319 317 315 314 313 314 315 317 316 314 314 314 313 314 313 314 317 320
166 181 186 191 229 262 316 327 327 333 341 342 341 343 341 338 337 335 331 329 328 327 325 323 321 319 318 316 314 312 312 312 314 312 311 312 312 312 313 312 313 315 319
179 179 188 196 214 327 338 349 353 353 349 347 344 340 338 337 335 332 330 330 329 328 326 323 320 319 317 314 312 310 309 310 310 308 308 308 308 309 310 310 311 312 315
179 190 173 120 53 31 18 8 0 353 347 344 341 338 336 335 332 330 329 328 326 326 324 321 319 318 316 314 311 309 309 309 306 305 304 304 305 307 307 309 310 311 313
158 141 151 112 58 34 15 1 349 346 345 341 338 335 333 332 329 327 327 326 325 323 321 318 316 314 313 311 309 308 306 304 302 304 303 302 302 303 304 306 308 308 309
158 148 116 66 28 8 351 346 344 343 340 337 336 335 332 329 327 327 327 326 323 321 320 317 315 314 311 309 307 305 302 299 299 299 298 297 298 301 303 306 308 307 307